{"data":{"norad_id":57444,"intl_designator":"2023-105Q","name":"STARLINK-30181","alt_names":[],"object_type":"PAYLOAD","status":"ACTIVE","operator":null,"country":"US","launch_date":"2023-07-24","launch_site_code":"AFETR","launch_vehicle":null,"mission":null,"orbit_class":"UNKNOWN","rcs_meters":null,"size_class":null,"mass_kg":null,"dimensions":null,"purposes":["comms"],"wikipedia_slug":null,"has_3d_model":false,"image_url":null,"decayed_at":null,"tle_current":{"epoch":"2026-09-19T23:01:03.050112Z","epoch_age_seconds":174775,"freshness":"STALE","line1":"1 57444U 23105Q   26262.95906308  .00001014  00000+0  46363-4 0  9994","line2":"2 57444  43.0018 246.0583 0001508 270.7581  89.3098 15.27578792175311","mean_motion":15.27578792,"eccentricity":0.0001508,"inclination_deg":43.0018,"raan_deg":246.0583,"arg_perigee_deg":270.7581,"mean_anomaly_deg":89.3098,"bstar":4.6363e-5,"rev_number":17531,"period_min":94.266823259222,"perigee_km":482.01804581986,"apogee_km":484.08738063737,"semimajor_km":6861.1897132286,"source":"CELESTRAK","updated_at":"2026-09-21T09:00:33.626998Z"}}}